Location: Asheville, NC
(35.6000°N, 82.5500°W)
Time: 03:12:14

SEEDS - Pass Details

Date: 06 January 2018
Orbit: 588 x 605 km, 97.5° (Epoch: 20 March)

Event Time Altitude Azimuth Distance (km) Brightness Sun altitude
Rises 19:26:48 0° 181° (S) 2,840 ? -22.7°
Reaches altitude 10° 19:29:02 10° 187° (S) 1,942 ? -23.2°
Maximum altitude 19:33:05 46° 261° (W) 820 ? -24.0°
Drops below altitude 10° 19:37:10 10° 335° (NNW) 1,953 ? -24.8°
Sets 19:39:25 0° 341° (NNW) 2,858 ? -25.2°
